Richmond, KY

3:00 AM EDT on August 21, 2017 (GMT -0400)
Richmond

Weather History for KI39 - May, 2013

Change the Weather History Date:

Tuesday, May 7, 2013

  Actual Average (KLOZ) Record (KLOZ)
Temperature  
Mean Temperature 56 °F -  
Max Temperature 68 °F 73 °F 88 °F (2014)
Min Temperature 44 °F 49 °F 34 °F (1989)
Degree Days  
Heating Degree Days 9    
Growing Degree Days 6 (Base 50)    
Moisture  
Dew Point 51 °F    
Average Humidity 86    
Maximum Humidity 100    
Minimum Humidity 60    
Precipitation  
Precipitation 0.00 in - - ()
Sea Level Pressure  
Sea Level Pressure 29.94 in    
Wind  
Wind Speed 1 mph (North)    
Max Wind Speed 8 mph    
Max Gust Speed -    
Visibility 6 miles    
Events      
Averages and records for this station are not official NWS values.
T = Trace of Precipitation, MM = Missing Value Source: NWS Daily Summary

Daily Weather History Graph

Daily Weather History Graph

Search for Another Location

Airport or City:

Trip Planner

Search our weather history database for the weather conditions in past years. The results will help you decide how hot, cold, wet, or windy it might be!

Date:

Astronomy

May. 07, 2013 Rise Set
Actual Time 6:35 AM EDT 8:33 PM EDT
Civil Twilight 6:06 AM EDT 9:01 PM EDT
Nautical Twilight 5:31 AM EDT 9:36 PM EDT
Astronomical Twilight 4:54 AM EDT 10:14 PM EDT
Moon 5:06 AM EDT (5/7) 6:33 PM EDT (5/7)
Length of Visible Light 14h 55m
Length of Day
13h 58m
Waning Crescent, 5% of the Moon is Illuminated
May 7
Waning Crescent
May 9
New
May 18
First Quarter
May 25
Full
May 31
Last Quarter

Hourly Weather History & Observations

Time (EDT) Temp. Windchill Dew Point Humidity Pressure Visibility Wind Dir Wind Speed Gust Speed Precip Events Conditions
12:15 AM 51.8 °F - 50.0 °F 94% 29.90 in 10.0 mi Calm Calm - N/A   Overcast
12:35 AM 51.8 °F - 50.0 °F 94% 29.90 in 10.0 mi Calm Calm - N/A   Scattered Clouds
12:55 AM 50.0 °F - 48.2 °F 94% 29.90 in 5.0 mi SE 3.5 mph - N/A   Mostly Cloudy
1:15 AM 51.8 °F - 50.0 °F 94% 29.90 in 7.0 mi SSW 4.6 mph - N/A   Mostly Cloudy
1:35 AM 51.8 °F - 50.0 °F 94% 29.90 in 7.0 mi Calm Calm - N/A   Overcast
2:15 AM 50.0 °F - 48.2 °F 94% 29.90 in 0.5 mi Calm Calm - N/A   Mostly Cloudy
2:35 AM 50.0 °F - 48.2 °F 94% 29.90 in 0.5 mi Calm Calm - N/A   Mostly Cloudy
2:55 AM 48.2 °F - 46.4 °F 93% 29.90 in 0.2 mi Calm Calm - N/A   Overcast
3:15 AM 48.2 °F - 46.4 °F 93% 29.90 in 0.2 mi Calm Calm - N/A   Overcast
3:35 AM 46.4 °F - 46.4 °F 100% 29.90 in 0.2 mi Calm Calm - N/A   Overcast
3:55 AM 48.2 °F - 46.4 °F 93% 29.90 in 0.5 mi South 3.5 mph - N/A   Overcast
4:15 AM 46.4 °F - 44.6 °F 93% 29.90 in 0.2 mi Calm Calm - N/A   Overcast
4:35 AM 46.4 °F - 44.6 °F 93% 29.91 in 0.2 mi Calm Calm - N/A   Overcast
4:55 AM 46.4 °F - 44.6 °F 93% 29.91 in 0.2 mi Calm Calm - N/A   Overcast
5:15 AM 44.6 °F - 44.6 °F 100% 29.91 in 0.5 mi Calm Calm - N/A   Overcast
5:35 AM 44.6 °F - 44.6 °F 100% 29.91 in 0.5 mi Calm Calm - N/A   Overcast
5:55 AM 44.6 °F - 44.6 °F 100% 29.91 in 1.8 mi Calm Calm - N/A   Scattered Clouds
6:15 AM 44.6 °F 43.1 °F 44.6 °F 100% 29.92 in 3.0 mi SSW 3.5 mph - N/A   Scattered Clouds
6:35 AM 44.6 °F - 42.8 °F 93% 29.93 in 0.5 mi Calm Calm - N/A   Overcast
6:55 AM 44.6 °F - 42.8 °F 93% 29.93 in 0.2 mi Calm Calm - N/A   Overcast
7:15 AM 44.6 °F - 44.6 °F 100% 29.94 in 0.2 mi Calm Calm - N/A   Overcast
7:35 AM 46.4 °F - 44.6 °F 93% 29.95 in 0.2 mi Calm Calm - N/A   Overcast
7:55 AM 46.4 °F - 46.4 °F 100% 29.96 in 0.2 mi Calm Calm - N/A   Overcast
8:15 AM 48.2 °F - 46.4 °F 93% 29.96 in 0.2 mi Calm Calm - N/A   Overcast
8:35 AM 48.2 °F - 48.2 °F 100% 29.96 in 0.2 mi Calm Calm - N/A   Overcast
8:55 AM 50.0 °F - 48.2 °F 94% 29.96 in 0.5 mi Calm Calm - N/A   Overcast
9:15 AM 50.0 °F - 50.0 °F 100% 29.97 in 5.0 mi Calm Calm - N/A   Overcast
9:35 AM 51.8 °F - 50.0 °F 94% 29.97 in 7.0 mi Calm Calm - N/A   Overcast
9:55 AM 51.8 °F - 51.8 °F 100% 29.96 in 10.0 mi Calm Calm - N/A   Overcast
10:15 AM 53.6 °F - 51.8 °F 94% 29.96 in 10.0 mi Calm Calm - N/A   Overcast
10:35 AM 53.6 °F - 53.6 °F 100% 29.97 in 10.0 mi Calm Calm - N/A   Overcast
10:55 AM 53.6 °F - 53.6 °F 100% 29.98 in 10.0 mi North 3.5 mph - N/A   Overcast
11:15 AM 55.4 °F - 53.6 °F 94% 29.98 in 10.0 mi Calm Calm - N/A   Overcast
11:35 AM 55.4 °F - 53.6 °F 94% 29.98 in 10.0 mi Calm Calm - N/A   Overcast
11:55 AM 55.4 °F - 53.6 °F 94% 29.98 in 10.0 mi Calm Calm - N/A   Overcast
12:15 PM 57.2 °F - 55.4 °F 94% 29.98 in 10.0 mi Calm Calm - N/A   Overcast
12:35 PM 57.2 °F - 55.4 °F 94% 29.98 in 10.0 mi NE 4.6 mph - N/A   Overcast
12:55 PM 59.0 °F - 57.2 °F 94% 29.98 in 10.0 mi Calm Calm - N/A   Overcast
1:15 PM 60.8 °F - 55.4 °F 82% 29.98 in 10.0 mi NNE 4.6 mph - N/A   Overcast
1:35 PM 62.6 °F - 53.6 °F 72% 29.97 in 10.0 mi Calm Calm - N/A   Mostly Cloudy
1:55 PM 62.6 °F - 53.6 °F 72% 29.97 in 10.0 mi NE 3.5 mph - N/A   Overcast
2:15 PM 64.4 °F - 53.6 °F 68% 29.97 in 10.0 mi ENE 5.8 mph - N/A   Overcast
2:35 PM 64.4 °F - 53.6 °F 68% 29.96 in 10.0 mi North 5.8 mph - N/A   Mostly Cloudy
2:55 PM 64.4 °F - 51.8 °F 64% 29.96 in 10.0 mi North 6.9 mph - N/A   Scattered Clouds
3:15 PM 66.2 °F - 53.6 °F 64% 29.95 in 10.0 mi NNW 8.1 mph - N/A   Scattered Clouds
3:35 PM 66.2 °F - 51.8 °F 60% 29.95 in 10.0 mi NE 6.9 mph - N/A   Scattered Clouds
4:15 PM 68.0 °F - 53.6 °F 60% 29.94 in 10.0 mi NE 4.6 mph - N/A   Scattered Clouds
4:35 PM 66.2 °F - 51.8 °F 60% 29.94 in 10.0 mi North 3.5 mph - N/A   Clear
4:55 PM 66.2 °F - 53.6 °F 64% 29.93 in 10.0 mi NE 4.6 mph - N/A   Mostly Cloudy
5:15 PM 66.2 °F - 53.6 °F 64% 29.93 in 10.0 mi NNW 4.6 mph - N/A   Scattered Clouds
5:35 PM 66.2 °F - 53.6 °F 64% 29.93 in 10.0 mi Calm Calm - N/A   Scattered Clouds
5:55 PM 66.2 °F - 53.6 °F 64% 29.93 in 10.0 mi Calm Calm - N/A   Scattered Clouds
6:35 PM 66.2 °F - 53.6 °F 64% 29.93 in 7.0 mi West 3.5 mph - N/A   Scattered Clouds
7:15 PM 64.4 °F - 53.6 °F 68% 29.93 in 7.0 mi Calm Calm - N/A   Mostly Cloudy
7:35 PM 64.4 °F - 53.6 °F 68% 29.93 in 10.0 mi Calm Calm - N/A   Mostly Cloudy
7:55 PM 64.4 °F - 55.4 °F 73% 29.93 in 10.0 mi Calm Calm - N/A   Overcast
8:15 PM 64.4 °F - 55.4 °F 73% 29.93 in 10.0 mi Calm Calm - N/A   Overcast
8:35 PM 64.4 °F - 55.4 °F 73% 29.94 in 10.0 mi Calm Calm - N/A   Overcast
8:55 PM 60.8 °F - 57.2 °F 88% 29.95 in 10.0 mi West 5.8 mph - N/A   Overcast
9:15 PM 60.8 °F - 55.4 °F 82% 29.95 in 10.0 mi Calm Calm - N/A   Overcast
9:35 PM 59.0 °F - 55.4 °F 88% 29.96 in 10.0 mi North 3.5 mph - N/A   Overcast
10:15 PM 59.0 °F - 55.4 °F 88% 29.96 in 10.0 mi Calm Calm - N/A   Overcast
10:35 PM 59.0 °F - 55.4 °F 88% 29.96 in 10.0 mi Calm Calm - N/A   Mostly Cloudy
11:15 PM 59.0 °F - 55.4 °F 88% 29.97 in 10.0 mi Calm Calm - N/A   Overcast
11:35 PM 57.2 °F - 55.4 °F 94% 29.97 in 10.0 mi Calm Calm - N/A   Overcast
11:55 PM 57.2 °F - 55.4 °F 94% 29.97 in 5.0 mi WNW 8.1 mph - N/A   Overcast